Weather History for KPGD - September, 2013

Change the Weather History Date:

Friday, September 6, 2013

  Actual Average Record
Temperature  
Mean Temperature 84 °F -  
Max Temperature 95 °F 88 °F 95 °F (2013)
Min Temperature 75 °F 72 °F 71 °F (1997)
Cooling Degree Days 19    
Growing Degree Days 34 (Base 50)    
Moisture  
Dew Point 75 °F    
Average Humidity 80    
Maximum Humidity 96    
Minimum Humidity 47    
Precipitation  
Precipitation 0.14 in - - ()
Sea Level Pressure  
Sea Level Pressure 30.03 in    
Wind  
Wind Speed 3 mph (ENE)    
Max Wind Speed 20 mph    
Max Gust Speed 26 mph    
Visibility 10 miles    
Events Rain    
Averages and records for this station are not official NWS values.
T = Trace of Precipitation, MM = Missing Value Source: NWS Daily Summary

Daily Weather History Graph

Daily Weather History Graph

Search for Another Location

Airport or City:

Trip Planner

Search our weather history database for the weather conditions in past years. The results will help you decide how hot, cold, wet, or windy it might be!

Date:

Astronomy

Sep. 06, 2013 Rise Set
Actual Time 7:09 AM EDT 7:42 PM EDT
Civil Twilight 6:46 AM EDT 8:05 PM EDT
Nautical Twilight 6:18 AM EDT 8:33 PM EDT
Astronomical Twilight 5:50 AM EDT 9:01 PM EDT
Moon 8:09 AM EDT (9/6) 8:19 PM EDT (9/6)
Length of Visible Light 13h 19m
Length of Day
12h 32m
New Moon, 1% of the Moon is Illuminated
Sep 6
New Moon
Sep 12
First Quarter
Sep 19
Full
Sep 26
Last Quarter
Oct 4
New

Hourly Weather History & Observations

Time (EDT) Temp. Heat Index Dew Point Humidity Pressure Visibility Wind Dir Wind Speed Gust Speed Precip Events Conditions
12:53 AM 78.1 °F - 75.9 °F 93% 30.06 in 10.0 mi Calm Calm - N/A   Clear
1:53 AM 78.1 °F - 75.9 °F 93% 30.06 in 10.0 mi Calm Calm - N/A   Clear
2:53 AM 77.0 °F - 75.9 °F 96% 30.04 in 10.0 mi North - - N/A   Clear
3:53 AM 77.0 °F - 75.9 °F 96% 30.03 in 10.0 mi Calm Calm - N/A   Clear
4:53 AM 77.0 °F - 75.9 °F 96% 30.03 in 10.0 mi Calm Calm - N/A   Clear
5:53 AM 77.0 °F - 75.9 °F 96% 30.04 in 10.0 mi Calm Calm - N/A   Clear
6:53 AM 77.0 °F - 75.9 °F 96% 30.05 in 8.0 mi Calm Calm - N/A   Clear
7:53 AM 77.0 °F - 75.9 °F 96% 30.06 in 10.0 mi NE 4.6 mph - N/A   Clear
8:53 AM 82.0 °F 91.0 °F 78.1 °F 88% 30.07 in 10.0 mi ENE 5.8 mph - N/A   Clear
9:53 AM 84.9 °F 96.6 °F 78.1 °F 80% 30.07 in 10.0 mi ESE 8.1 mph - N/A   Partly Cloudy
10:53 AM 86.0 °F 96.0 °F 75.9 °F 72% 30.08 in 10.0 mi ESE 5.8 mph - N/A   Partly Cloudy
11:53 AM 89.1 °F 99.1 °F 75.0 °F 63% 30.07 in 10.0 mi SSE 6.9 mph - N/A   Partly Cloudy
12:53 PM 91.0 °F 100.4 °F 73.9 °F 57% 30.06 in 10.0 mi Calm Calm - N/A   Scattered Clouds
1:53 PM 93.0 °F 101.9 °F 73.0 °F 52% 30.04 in 10.0 mi NE 3.5 mph - N/A   Partly Cloudy
2:53 PM 93.0 °F 101.9 °F 73.0 °F 52% 29.99 in 10.0 mi ENE 15.0 mph - N/A   Scattered Clouds
3:53 PM 91.9 °F 98.4 °F 71.1 °F 50% 29.96 in 10.0 mi ESE 5.8 mph - N/A   Mostly Cloudy
4:53 PM 93.9 °F 100.8 °F 71.1 °F 47% 29.95 in 10.0 mi Calm Calm - N/A   Scattered Clouds
5:53 PM 89.1 °F 99.1 °F 75.0 °F 63% 29.95 in 10.0 mi North 4.6 mph - N/A   Partly Cloudy
6:53 PM 88.0 °F 96.5 °F 73.9 °F 63% 29.96 in 10.0 mi North 10.4 mph - N/A   Partly Cloudy
7:22 PM 80.6 °F 85.4 °F 73.4 °F 79% 29.98 in 10.0 mi ENE 16.1 mph - N/A   Overcast
7:53 PM 75.9 °F - 73.0 °F 91% 30.01 in 9.0 mi North 19.6 mph 26.5 mph 0.04 in Rain Light Rain
8:53 PM 75.0 °F - 73.0 °F 94% 30.02 in 10.0 mi NNE 8.1 mph - 0.08 in Rain Light Rain
9:53 PM 75.0 °F - 72.0 °F 90% 30.04 in 10.0 mi SE 3.5 mph - 0.01 in   Clear
10:53 PM 75.0 °F - 73.0 °F 94% 30.05 in 10.0 mi Calm Calm - 0.00 in Rain Light Rain
11:53 PM 75.0 °F - 73.0 °F 94% 30.02 in 10.0 mi Calm Calm - 0.01 in   Clear